Melaka, Malaysia

1:15 PM MYT on February 24, 2017 (GMT +0800)
Melaka

Weather History for WMKM - January, 2013

Change the Weather History Date:

Sunday, January 20, 2013

  Actual Average Record
Temperature  
Mean Temperature 80 °F -  
Max Temperature 88 °F 90 °F - ()
Min Temperature 72 °F 73 °F - ()
Cooling Degree Days 15    
Growing Degree Days 30 (Base 50)    
Moisture  
Dew Point 74 °F    
Average Humidity 83    
Maximum Humidity 100    
Minimum Humidity 59    
Precipitation  
Precipitation 0.00 in 0.11 in - ()
Sea Level Pressure  
Sea Level Pressure 29.89 in    
Wind  
Wind Speed 4 mph ()    
Max Wind Speed 8 mph    
Max Gust Speed 20 mph    
Visibility 6.7 miles    
Events Rain    
T = Trace of Precipitation, MM = Missing Value Source: Averaged Metar Reports

Daily Weather History Graph

Daily Weather History Graph

Search for Another Location

Airport or City:

Trip Planner

Search our weather history database for the weather conditions in past years. The results will help you decide how hot, cold, wet, or windy it might be!

Date:

Astronomy

Jan. 20, 2013 Rise Set
Actual Time 7:21 AM MYT 7:22 PM MYT
Civil Twilight 6:59 AM MYT 7:44 PM MYT
Nautical Twilight 6:34 AM MYT 8:09 PM MYT
Astronomical Twilight 6:08 AM MYT 8:35 PM MYT
Moon 1:55 PM MYT (1/20) 1:37 AM MYT (1/20)
Length of Visible Light 12h 44m
Length of Day
12h 00m
First Quarter, 61% of the Moon is Illuminated
Jan 20
First Quarter
Jan 27
Full
Feb 3
Last Quarter
Feb 10
New
Feb 18
First Quarter

Hourly Weather History & Observations

Time (MYT) Temp. Heat Index Dew Point Humidity Pressure Visibility Wind Dir Wind Speed Gust Speed Precip Events Conditions
12:00 AM 75.2 °F - 73.4 °F 94% 29.95 in 6.2 mi NE 2.3 mph - N/A   Mostly Cloudy
1:00 AM 75.2 °F - 71.6 °F 89% 29.95 in 6.2 mi NNE 3.5 mph - N/A   Mostly Cloudy
2:00 AM 74 °F - 72 °F 94% 29.93 in 7 mi NE 2.3 mph - -   Scattered Clouds
2:00 AM 75.2 °F - 73.4 °F 94% 29.92 in 6.2 mi NE 2.3 mph - N/A   Mostly Cloudy
3:00 AM 73.4 °F - 73.4 °F 100% 29.89 in 6.2 mi East 3.5 mph - N/A   Mostly Cloudy
4:00 AM 73.4 °F - 73.4 °F 100% 29.86 in 6.2 mi ENE 2.3 mph - N/A   Mostly Cloudy
5:00 AM 74 °F - 72 °F 93% 29.88 in 6 mi ENE 2.3 mph - - Rain Light Rain
5:00 AM 73.4 °F - 71.6 °F 94% 29.86 in 6.2 mi ENE 2.3 mph - N/A Rain Light Rain
6:00 AM 73.4 °F - 73.4 °F 100% 29.86 in 6.2 mi NE 1.2 mph - N/A   Mostly Cloudy
7:00 AM 75.2 °F - 71.6 °F 89% 29.86 in 5.6 mi NNE 2.3 mph - N/A   Mostly Cloudy
8:00 AM 76 °F - 72 °F 85% 29.89 in 6 mi NNE 3.5 mph - -   Haze
8:00 AM 75.2 °F - 71.6 °F 89% 29.89 in 6.2 mi NNE 3.5 mph - N/A   Mostly Cloudy
9:00 AM 78.8 °F - 73.4 °F 83% 29.92 in 6.2 mi NNE 3.5 mph - N/A   Mostly Cloudy
10:00 AM 80.6 °F 85.4 °F 73.4 °F 79% 29.92 in 6.2 mi NNE 5.8 mph - N/A   Mostly Cloudy
11:00 AM 84 °F - 75 °F 67% 29.93 in 10 mi NE 8.1 mph - -   Haze
11:00 AM 84.2 °F 92.3 °F 75.2 °F 74% 29.92 in 6.2 mi NE 8.1 mph - N/A   Mostly Cloudy
12:00 PM 86.0 °F 95.1 °F 75.2 °F 70% 29.89 in 6.2 mi NE 6.9 mph - N/A   Mostly Cloudy
1:00 PM 87.8 °F 97.6 °F 75.2 °F 66% 29.89 in 6.2 mi NNE 8.1 mph 19.6 mph N/A   Mostly Cloudy
2:00 PM 89 °F - 76 °F 59% 29.87 in 10 mi NNE 6.9 mph - -   Partly Cloudy
2:00 PM 87.8 °F 99.7 °F 77.0 °F 70% 29.86 in 6.2 mi NNE 6.9 mph - N/A   Mostly Cloudy
3:00 PM 84.2 °F 94.1 °F 77.0 °F 79% 29.83 in 5.0 mi NE 5.8 mph - N/A   Mostly Cloudy
4:00 PM 84.2 °F 94.1 °F 77.0 °F 79% 29.83 in 6.2 mi North 4.6 mph - N/A   Mostly Cloudy
5:00 PM 83 °F - 75 °F 70% 29.83 in 9 mi NNE 6.9 mph - -   Haze
5:00 PM 84.2 °F 92.3 °F 75.2 °F 74% 29.83 in 6.2 mi NNE 6.9 mph - N/A   Mostly Cloudy
6:00 PM 82.4 °F 88.2 °F 73.4 °F 74% 29.83 in 6.2 mi NNE 5.8 mph - N/A   Mostly Cloudy
7:00 PM 80.6 °F 85.4 °F 73.4 °F 79% 29.86 in 6.2 mi NNE 4.6 mph - N/A   Mostly Cloudy
8:00 PM 80 °F - 74 °F 76% 29.91 in 9 mi NNE 3.5 mph - -   Scattered Clouds
8:00 PM 78.8 °F - 73.4 °F 83% 29.89 in 6.2 mi NNE 3.5 mph - N/A   Mostly Cloudy
9:00 PM 78.8 °F - 73.4 °F 83% 29.92 in 6.2 mi NE 3.5 mph - N/A   Mostly Cloudy
10:00 PM 78.8 °F - 75.2 °F 89% 29.92 in 6.2 mi ENE 5.8 mph - N/A   Mostly Cloudy
11:00 PM 78 °F - 74 °F 86% 29.95 in 9 mi ENE 5.8 mph - -   Scattered Clouds
11:00 PM 78.8 °F - 75.2 °F 89% 29.95 in 6.2 mi ENE 5.8 mph - N/A   Mostly Cloudy